Other Public Products
Issued by NWS Charleston, SC

Current Version | Previous Version | Text Only | Print | Product List | Glossary Off
Versions: 1 2 3 4 5 6 7 8 9 10 11 12 13 14 15 16 17 18 19 20 21 22 23 24 25 26 27 28 29 30 31 32 33 34 35 36 37 38 39 40 41 42 43 44 45 46 47 48 49 50

000
FPUS82 KCHS 271227
OPUCHS

TEST...KCHS/KSAV Gateway Observations...TEST
National Weather Service Charleston SC
800 AM EDT SUN MAY 27 2018

NOTE: "fair" indicates few or no clouds below 12,000 feet with no
significant weather and/or obstructions to visibility.

SCZ050-WAZ558-NCZ071-TXZ119-213-PAZ071-DCZ001-FLZ074-172-MI076-
NYZ176-178-MAZ016-IL014-TNZ027-NJZ106-GAZ044-MD014-271300-

...Gateway Observations for Charleston International...

CITY           SKY/WX    TMP DP  RH WIND       PRES   REMARKS
Chas Airport   LGT RAIN  76  74  93 E3        30.00R
6HR MIN TEMP:  70; 6HR MAX TEMP:  76; 6HR PCP: TRACE;

Seattle        PTCLDY    52  47  83 NE6       30.27R
6HR MIN TEMP:  51; 6HR MAX TEMP:  57;

Charlotte      PTSUNNY   72  70  94 S7        30.02R
6HR MIN TEMP:  71; 6HR MAX TEMP:  73;

Dallas DFW     PTCLDY    75  72  90 E5        29.81R
6HR MIN TEMP:  75; 6HR MAX TEMP:  82;

Dallas Love    PTCLDY    78  72  81 E7        29.82R
6HR MIN TEMP:  78; 6HR MAX TEMP:  85;

Philladelphia  PTSUNNY   74  71  91 SW5       29.91S
6HR MIN TEMP:  73; 6HR MAX TEMP:  77; 6HR PCP: TRACE;

Wash National  PTSUNNY   77  71  82 SW5       29.92R
6HR MIN TEMP:  73; 6HR MAX TEMP:  76;

Baltimore      CLOUDY    74  72  93 W6        29.90R
6HR MIN TEMP:  72; 6HR MAX TEMP:  74;

Miami          CLOUDY    76  74  93 SE12      29.79S
6HR MIN TEMP:  74; 6HR MAX TEMP:  76; 6HR PCP:  0.11;

Detroit        FOG       68  66  93 W3        29.90S VSB 1/4
6HR MIN TEMP:  64; 6HR MAX TEMP:  69;

Newark         RAIN      65  63  93 NE6       29.98R FOG
6HR MIN TEMP:  65; 6HR MAX TEMP:  78; 6HR PCP:  0.41;

Laguardia      RAIN      64  60  87 NE16      29.98F
6HR MIN TEMP:  65; 6HR MAX TEMP:  80; 6HR PCP:  0.12;

J F K          HVY RAIN  63  63 100 NE5       29.98S FOG
6HR MIN TEMP:  61; 6HR MAX TEMP:  71; 6HR PCP:  0.19;

Boston Logan   CLOUDY    55  49  80 NE16      30.17R
6HR MIN TEMP:  55; 6HR MAX TEMP:  60; 6HR PCP: TRACE;

Ft. Lauderdale LGT RAIN  75  74  96 S12       29.79S
6HR MIN TEMP:  73; 6HR MAX TEMP:  77; 6HR PCP:  0.29;

Chicago O`Hare FAIR      75  67  76 SW3       29.85R
6HR MIN TEMP:  70; 6HR MAX TEMP:  75;

Chicago Midway FAIR      75  67  76 SW3       29.85R
6HR MIN TEMP:  72; 6HR MAX TEMP:  77;

Houston Bush   FAIR      69  69 100 NE3       29.81R
6HR MIN TEMP:  68; 6HR MAX TEMP:  70;

Houston Hobby  FAIR      69  69 100 CALM      29.80R
6HR MIN TEMP:  68; 6HR MAX TEMP:  70;

Nashville      FAIR      70  68  93 S3        29.95R
6HR MIN TEMP:  68; 6HR MAX TEMP:  71;

Atlanta        PTSUNNY   72  68  87 E3        29.98R
6HR MIN TEMP:  70; 6HR MAX TEMP:  72;


$$

GAZ044-118-TXZ119-213-NCZ071-DCZ001-MDZ014-506-PAZ021-071-NJZ106-
NYZ176-178-MAZ106-OHZ011-021-055-MIZ076-KYZ091-ILZ014-INZ047-
MNZ060-ONZ431-271300-

...Gateway Observations for Savannah International...

CITY           SKY/WX    TMP DP  RH WIND       PRES   REMARKS
Savannah Arpt  PTSUNNY   75  72  90 E7        29.97R
6HR MIN TEMP:  71; 6HR MAX TEMP:  75;

Atlanta        PTSUNNY   72  68  87 E3        29.98R
6HR MIN TEMP:  70; 6HR MAX TEMP:  72;

Charlotte      PTSUNNY   72  70  94 S7        30.02R
6HR MIN TEMP:  71; 6HR MAX TEMP:  73;

Dallas DFW     PTCLDY    75  72  90 E5        29.81R
6HR MIN TEMP:  75; 6HR MAX TEMP:  82;

Houston Bush   FAIR      69  69 100 NE3       29.81R
6HR MIN TEMP:  68; 6HR MAX TEMP:  70;

Wash National  PTSUNNY   77  71  82 SW5       29.92R
6HR MIN TEMP:  73; 6HR MAX TEMP:  76;

Wash Dulles    PTSUNNY   75  71  87 W6        29.92R
6HR MIN TEMP:  72; 6HR MAX TEMP:  75;

Baltimore      CLOUDY    74  72  93 W6        29.90R
6HR MIN TEMP:  72; 6HR MAX TEMP:  74;

Philadelphia   PTSUNNY   74  71  91 SW5       29.91S
6HR MIN TEMP:  73; 6HR MAX TEMP:  77; 6HR PCP: TRACE;

Newark         RAIN      65  63  93 NE6       29.98R FOG
6HR MIN TEMP:  65; 6HR MAX TEMP:  78; 6HR PCP:  0.41;

Laguardia      RAIN      64  60  87 NE16      29.98F
6HR MIN TEMP:  65; 6HR MAX TEMP:  80; 6HR PCP:  0.12;

J F K          HVY RAIN  63  63 100 NE5       29.98S FOG
6HR MIN TEMP:  61; 6HR MAX TEMP:  71; 6HR PCP:  0.19;

Boston         CLOUDY    55  49  80 NE16      30.17R
6HR MIN TEMP:  55; 6HR MAX TEMP:  60; 6HR PCP: TRACE;

Pittsburg      CLOUDY    68  65  90 CALM      29.94R
6HR MIN TEMP:  66; 6HR MAX TEMP:  68; 6HR PCP: TRACE;

Akron          CLOUDY    69  66  90 NW5       29.94R FOG
6HR MIN TEMP:  66; 6HR MAX TEMP:  69;

Cleveland      CLOUDY    68  66  93 S7        29.94R FOG
6HR MIN TEMP:  66; 6HR MAX TEMP:  68;

Cincinnati     PTSUNNY   69  66  90 W3        29.93R
6HR MIN TEMP:  66; 6HR MAX TEMP:  71; 6HR PCP:  0.01;

Columbus       FAIR      69  69 100 MISG      29.93R
Detroit        FOG       68  66  93 W3        29.90S VSB 1/4
6HR MIN TEMP:  64; 6HR MAX TEMP:  69;

Chicago O`Hare FAIR      75  67  76 SW3       29.85R
6HR MIN TEMP:  70; 6HR MAX TEMP:  75;

Minneapolis    PTSUNNY   71  64  78 CALM      29.80R
6HR MIN TEMP:  67; 6HR MAX TEMP:  76;

Indianapolis   PTSUNNY   72  68  87 SW7       29.90R
6HR MIN TEMP:  68; 6HR MAX TEMP:  73;

Toronto Canada MOSUNNY   66  59  77 E3        29.92R

$$




USA.gov is the U.S. government's official web portal to all federal, state and local government web resources and services.